Terminal Aerodrome Forecast
Issued by NWS Brownsville, TX

Home | Current Version | Previous Version | Text Only | Print | Product List | Glossary On
Versions: 1 2 3 4 5 6 7 8 9 10 11 12 13 14 15 16 17 18 19 20
000
FTUS44 KBRO 270522
TAFMFE
TAF
KMFE 270522Z 2706/2806 14010KT P6SM SCT020
      TEMPO 2709/2713 5SM BR BKN015
     FM271400 16012KT P6SM BKN040
     FM271800 17014G18KT P6SM SCT050
     FM280100 14012KT P6SM FEW025 SCT250=

USA.gov is the U.S. government's official web portal to all federal, state and local government web resources and services.